| time (UTC) | temp C | wind direction | speed KPH | gust KPH | rain 1hr cm | rain 24hr cm | rain mn cm | humidity % | barometer mb |
| 20260506044557 | 10 | 43 | 17.7 | 25.7 | 0.00 | 0.00 | 0.00 | 76 | 1012.5 |
| 20260506043048 | 11 | 58 | 17.7 | 24.1 | 0.00 | 0.00 | 0.00 | 75 | 1012.3 |
| 20260506041554 | 11 | 48 | 14.5 | 22.5 | 0.00 | 0.00 | 0.00 | 75 | 1012.4 |
| 20260506040046 | 11 | 61 | 14.5 | 22.5 | 0.00 | 0.00 | 0.00 | 74 | 1012.1 |
| 20260506034542 | 11 | 67 | 17.7 | 24.1 | 0.00 | 0.00 | 0.00 | 74 | 1011.8 |
| 20260506033048 | 11 | 62 | 14.5 | 25.7 | 0.00 | 0.00 | 0.00 | 74 | 1011.5 |
| 20260506031556 | 11 | 63 | 17.7 | 25.7 | 0.00 | 0.00 | 0.00 | 73 | 1011.4 |
| 20260506030058 | 11 | 36 | 16.1 | 25.7 | 0.00 | 0.00 | 0.00 | 72 | 1011.5 |
| 20260506024545 | 11 | 44 | 19.3 | 27.4 | 0.00 | 0.00 | 0.00 | 71 | 1011.3 |
| 20260506023042 | 11 | 34 | 17.7 | 27.4 | 0.00 | 0.00 | 0.00 | 70 | 1011.1 |
| 20260506021547 | 12 | 53 | 20.9 | 27.4 | 0.00 | 0.00 | 0.00 | 70 | 1010.7 |
| 20260506020046 | 12 | 52 | 16.1 | 27.4 | 0.00 | 0.00 | 0.00 | 70 | 1010.7 |
| 20260506014558 | 12 | 55 | 24.1 | 29.0 | 0.00 | 0.00 | 0.00 | 69 | 1010.4 |
| 20260506013046 | 12 | 41 | 17.7 | 30.6 | 0.00 | 0.00 | 0.00 | 68 | 1010.3 |
| 20260506011540 | 12 | 25 | 17.7 | 29.0 | 0.00 | 0.00 | 0.00 | 68 | 1009.8 |
| 20260506010058 | 13 | 41 | 19.3 | 29.0 | 0.00 | 0.00 | 0.00 | 68 | 1009.6 |
| 20260506004620 | 13 | 28 | 19.3 | 29.0 | 0.00 | 0.00 | 0.00 | 68 | 1009.4 |
| 20260506003051 | 13 | 40 | 24.1 | 30.6 | 0.00 | 0.00 | 0.00 | 67 | 1009.3 |
| 20260506001544 | 13 | 51 | 19.3 | 29.0 | 0.00 | 0.00 | 0.00 | 67 | 1009.2 |
| 20260506000045 | 13 | 38 | 20.9 | 30.6 | 0.00 | 0.00 | 0.00 | 68 | 1009.1 |
| 20260505234611 | 13 | 5 | 20.9 | 29.0 | 0.00 | 0.00 | 0.00 | 68 | 1009.2 |
| 20260505233045 | 14 | 29 | 24.1 | 30.6 | 0.00 | 0.00 | 0.00 | 67 | 1009.1 |
| 20260505231546 | 14 | 17 | 19.3 | 29.0 | 0.00 | 0.00 | 0.00 | 66 | 1008.7 |
| 20260505230047 | 15 | 355 | 22.5 | 30.6 | 0.00 | 0.00 | 0.00 | 64 | 1008.8 |
| 20260505224549 | 15 | 5 | 20.9 | 29.0 | 0.00 | 0.00 | 0.00 | 64 | 1009.0 |
| 20260505223100 | 15 | 5 | 19.3 | 30.6 | 0.00 | 0.00 | 0.00 | 64 | 1009.0 |
| 20260505221559 | 16 | 5 | 22.5 | 30.6 | 0.00 | 0.00 | 0.00 | 62 | 1009.1 |
| 20260505220050 | 17 | 11 | 12.9 | 27.4 | 0.00 | 0.00 | 0.00 | 60 | 1008.9 |
| 20260505214547 | 17 | 5 | 14.5 | 27.4 | 0.00 | 0.00 | 0.00 | 60 | 1008.8 |
| 20260505213048 | 18 | 15 | 12.9 | 27.4 | 0.00 | 0.00 | 0.00 | 58 | 1009.0 |
| 20260505211554 | 18 | 11 | 12.9 | 25.7 | 0.00 | 0.00 | 0.00 | 58 | 1008.9 |
| 20260505210046 | 18 | 18 | 16.1 | 24.1 | 0.00 | 0.00 | 0.00 | 57 | 1008.7 |
| 20260505204553 | 18 | 355 | 19.3 | 29.0 | 0.00 | 0.00 | 0.00 | 56 | 1008.7 |
| 20260505203045 | 19 | 24 | 17.7 | 27.4 | 0.00 | 0.00 | 0.00 | 54 | 1008.3 |
| 20260505201554 | 19 | 26 | 17.7 | 25.7 | 0.00 | 0.00 | 0.00 | 53 | 1008.0 |
| 20260505200056 | 19 | 14 | 11.3 | 25.7 | 0.00 | 0.00 | 0.00 | 54 | 1008.2 |
| 20260505194544 | 19 | 15 | 16.1 | 24.1 | 0.00 | 0.00 | 0.00 | 53 | 1008.4 |
| 20260505193049 | 20 | 33 | 17.7 | 25.7 | 0.00 | 0.00 | 0.00 | 53 | 1008.2 |
| 20260505191547 | 19 | 360 | 14.5 | 27.4 | 0.00 | 0.00 | 0.00 | 54 | 1008.1 |
| 20260505190050 | 20 | 352 | 16.1 | 29.0 | 0.00 | 0.00 | 0.00 | 52 | 1008.0 |
| 20260505184545 | 20 | 360 | 22.5 | 30.6 | 0.00 | 0.00 | 0.00 | 54 | 1007.9 |
| 20260505183048 | 19 | 324 | 19.3 | 29.0 | 0.00 | 0.00 | 0.00 | 56 | 1007.7 |
| 20260505181544 | 20 | 312 | 24.1 | 29.0 | 0.00 | 0.00 | 0.00 | 55 | 1007.7 |
| 20260505180053 | 20 | 315 | 19.3 | 29.0 | 0.00 | 0.00 | 0.00 | 56 | 1008.1 |
| 20260505174549 | 20 | 333 | 19.3 | 29.0 | 0.00 | 0.00 | 0.00 | 57 | 1007.8 |
| 20260505173048 | 20 | 340 | 17.7 | 29.0 | 0.00 | 0.00 | 0.00 | 57 | 1007.6 |
| 20260505171543 | 20 | 350 | 19.3 | 27.4 | 0.00 | 0.00 | 0.00 | 56 | 1007.4 |
| 20260505170049 | 20 | 326 | 20.9 | 30.6 | 0.00 | 0.00 | 0.00 | 57 | 1007.4 |
| 20260505164546 | 20 | 342 | 22.5 | 29.0 | 0.00 | 0.00 | 0.00 | 59 | 1006.9 |
| 20260505163045 | 20 | 320 | 19.3 | 29.0 | 0.00 | 0.00 | 0.00 | 61 | 1006.5 |
| 20260505161544 | 20 | 352 | 17.7 | 30.6 | 0.00 | 0.00 | 0.00 | 63 | 1006.1 |
| 20260505153048 | 21 | 321 | 24.1 | 30.6 | 0.00 | 0.00 | 0.00 | 62 | 1005.5 |
| 20260505151546 | 21 | 338 | 24.1 | 30.6 | 0.00 | 0.00 | 0.00 | 63 | 1005.1 |
| 20260505124548 | 20 | 226 | 11.3 | 16.1 | 0.00 | 0.00 | 0.00 | 68 | 1001.9 |
| 20260505123042 | 20 | 232 | 9.7 | 17.7 | 0.00 | 0.00 | 0.00 | 68 | 1001.4 |
| 20260505121547 | 20 | 192 | 9.7 | 16.1 | 0.00 | 0.00 | 0.00 | 68 | 1001.2 |
| 20260505120051 | 20 | 207 | 11.3 | 14.5 | 0.00 | 0.00 | 0.00 | 68 | 1001.4 |
| 20260505114547 | 20 | 200 | 11.3 | 16.1 | 0.00 | 0.00 | 0.00 | 67 | 1001.1 |
| 20260505113041 | 20 | 213 | 14.5 | 17.7 | 0.00 | 0.00 | 0.00 | 66 | 1000.5 |
| 20260505111544 | 21 | 215 | 14.5 | 19.3 | 0.00 | 0.00 | 0.00 | 65 | 1000.4 |
| 20260505101546 | 22 | 205 | 11.3 | 16.1 | 0.00 | 0.00 | 0.00 | 62 | 1000.1 |
| 20260505100048 | 22 | 203 | 11.3 | 16.1 | 0.00 | 0.00 | 0.00 | 61 | 1000.2 |
| 20260505094545 | 22 | 204 | 9.7 | 14.5 | 0.00 | 0.00 | 0.00 | 61 | 1000.0 |
| 20260505093045 | 22 | 193 | 11.3 | 16.1 | 0.00 | 0.00 | 0.00 | 61 | 1000.1 |
| 20260505091552 | 22 | 194 | 9.7 | 14.5 | 0.00 | 0.00 | 0.00 | 60 | 1000.1 |
| 20260505090050 | 22 | 211 | 11.3 | 16.1 | 0.00 | 0.00 | 0.00 | 60 | 1000.3 |
| 20260505084548 | 22 | 210 | 11.3 | 17.7 | 0.00 | 0.00 | 0.00 | 60 | 1000.4 |
| 20260505083041 | 22 | 198 | 9.7 | 14.5 | 0.00 | 0.00 | 0.00 | 60 | 1000.4 |
| 20260505081543 | 22 | 208 | 9.7 | 17.7 | 0.00 | 0.00 | 0.00 | 59 | 1000.4 |
| 20260505080053 | 22 | 217 | 11.3 | 17.7 | 0.00 | 0.00 | 0.00 | 60 | 1000.5 |
| 20260505074544 | 22 | 213 | 11.3 | 16.1 | 0.00 | 0.00 | 0.00 | 60 | 1000.5 |
| 20260505073053 | 23 | 196 | 11.3 | 16.1 | 0.00 | 0.00 | 0.00 | 59 | 1000.7 |
| 20260505071545 | 23 | 211 | 11.3 | 19.3 | 0.00 | 0.00 | 0.00 | 59 | 1000.8 |
| 20260505070053 | 23 | 205 | 14.5 | 20.9 | 0.00 | 0.00 | 0.00 | 59 | 1001.0 |
| 20260505064551 | 23 | 215 | 12.9 | 19.3 | 0.00 | 0.00 | 0.00 | 59 | 1001.2 |
| 20260505063109 | 23 | 203 | 14.5 | 20.9 | 0.00 | 0.00 | 0.00 | 59 | 1001.2 |
| 20260505061556 | 23 | 207 | 12.9 | 19.3 | 0.00 | 0.00 | 0.00 | 60 | 1001.3 |
| 20260505060049 | 23 | 196 | 11.3 | 17.7 | 0.00 | 0.00 | 0.00 | 61 | 1001.3 |
| 20260505054553 | 24 | 177 | 9.7 | 24.1 | 0.00 | 0.00 | 0.00 | 62 | 1001.4 |
| 20260505053055 | 24 | 188 | 9.7 | 16.1 | 0.00 | 0.00 | 0.00 | 62 | 1001.4 |
| 20260505051547 | 24 | 204 | 9.7 | 19.3 | 0.00 | 0.00 | 0.00 | 62 | 1001.6 |